QPF
0.04 0.05 0.05 0.06 0.05 0.04 0.03 0.03 0.03 0.03 0.04 0.05 0.05 0.06 0.07 0.05 0.05 0.06 0.07 0.09 0.09 0.08 0.07 0.08 0.07 0.06 0.05 0.03 0.06 0.07 0.07 0.08 0.07 0.05 0.05 0.04 0.04 0.04 0.05 0.05 0.05 0.05 0.05
0.07 0.07 0.05 0.04 0.05 0.05 0.04 0.03 0.04 0.03 0.03 0.04 0.06 0.06 0.06 0.05 0.06 0.06 0.06 0.08 0.11 0.12 0.09 0.07 0.06 0.04 0.03 0.03 0.04 0.05 0.06 0.07 0.08 0.05 0.04 0.03 0.04 0.03 0.03 0.04 0.04 0.04 0.05
0.09 0.06 0.05 0.05 0.05 0.04 0.05 0.05 0.05 0.05 0.05 0.05 0.06 0.06 0.06 0.07 0.09 0.08 0.09 0.09 0.10 0.11 0.10 0.07 0.06 0.07 0.05 0.05 0.05 0.06 0.06 0.06 0.07 0.05 0.03 0.02 0.03 0.02 0.03 0.04 0.06 0.05 0.06
0.05 0.04 0.04 0.04 0.05 0.06 0.07 0.06 0.06 0.08 0.07 0.06 0.07 0.07 0.08 0.08 0.09 0.09 0.11 0.10 0.09 0.07 0.07 0.07 0.08 0.09 0.08 0.08 0.06 0.04 0.04 0.04 0.05 0.05 0.04 0.03 0.03 0.02 0.05 0.04 0.04 0.04 0.05
0.04 0.05 0.06 0.07 0.06 0.06 0.07 0.06 0.07 0.07 0.05 0.05 0.07 0.07 0.07 0.07 0.08 0.09 0.09 0.09 0.10 0.09 0.07 0.07 0.06 0.07 0.07 0.05 0.04 0.03 0.04 0.04 0.05 0.05 0.04 0.02 0.02 0.02 0.03 0.03 0.04 0.03 0.04
0.05 0.06 0.06 0.05 0.05 0.05 0.05 0.05 0.05 0.06 0.07 0.08 0.07 0.07 0.06 0.05 0.06 0.07 0.08 0.09 0.10 0.09 0.06 0.05 0.06 0.08 0.07 0.06 0.05 0.05 0.04 0.04 0.04 0.04 0.03 0.02 0.01 0.02 0.03 0.04 0.05 0.06 0.04
0.04 0.05 0.05 0.04 0.03 0.03 0.03 0.05 0.05 0.05 0.06 0.07 0.06 0.06 0.06 0.06 0.07 0.07 0.07 0.06 0.05 0.05 0.05 0.06 0.06 0.07 0.07 0.06 0.06 0.06 0.05 0.04 0.04 0.04 0.03 0.02 0.02 0.02 0.03 0.03 0.05 0.05 0.05
0.06 0.04 0.03 0.04 0.04 0.04 0.04 0.05 0.07 0.07 0.08 0.08 0.07 0.07 0.08 0.08 0.11 0.11 0.07 0.04 0.03 0.04 0.05 0.06 0.05 0.06 0.08 0.06 0.05 0.04 0.04 0.03 0.03 0.03 0.02 0.02 0.02 0.02 0.03 0.04 0.05 0.06 0.05
0.05 0.03 0.03 0.04 0.04 0.04 0.04 0.05 0.08 0.09 0.09 0.09 0.08 0.07 0.07 0.08 0.10 0.09 0.06 0.04 0.04 0.04 0.04 0.04 0.04 0.05 0.08 0.08 0.07 0.07 0.06 0.04 0.04 0.04 0.03 0.03 0.03 0.02 0.03 0.04 0.05 0.05 0.04
0.06 0.07 0.09 0.10 0.06 0.04 0.06 0.08 0.10 0.09 0.11 0.14 0.11 0.08 0.07 0.07 0.09 0.08 0.06 0.05 0.04 0.05 0.04 0.04 0.06 0.08 0.10 0.11 0.10 0.08 0.05 0.03 0.03 0.03 0.03 0.03 0.03 0.03 0.03 0.03 0.04 0.04 0.04
0.07 0.10 0.13 0.16 0.10 0.08 0.09 0.11 0.13 0.14 0.16 0.15 0.11 0.08 0.07 0.08 0.09 0.08 0.08 0.06 0.04 0.04 0.04 0.04 0.05 0.07 0.07 0.06 0.06 0.04 0.03 0.02 0.02 0.02 0.01 0.01 0.02 0.02 0.02 0.03 0.04 0.04 0.04
0.09 0.10 0.11 0.14 0.15 0.14 0.15 0.16 0.17 0.22 0.23 0.20 0.17 0.16 0.14 0.11 0.10 0.09 0.09 0.06 0.04 0.03 0.03 0.04 0.04 0.04 0.03 0.02 0.02 0.02 0.02 0.02 0.01 0.01 0.02 0.02 0.02 0.02 0.02 0.03 0.03 0.04 0.04
0.10 0.12 0.15 0.24 0.30 0.24 0.21 0.20 0.19 0.19 0.20 0.20 0.21 0.18 0.17 0.12 0.11 0.11 0.09 0.06 0.03 0.02 0.02 0.02 0.03 0.03 0.02 0.02 0.02 0.03 0.02 0.02 0.03 0.03 0.03 0.03 0.03 0.03 0.03 0.03 0.04 0.04 0.04
0.12 0.12 0.14 0.16 0.20 0.21 0.21 0.19 0.19 0.21 0.29 0.30 0.24 0.19 0.14 0.10 0.07 0.07 0.06 0.05 0.03 0.01 0.01 0.02 0.02 0.02 0.01 0.01 0.02 0.02 0.03 0.04 0.04 0.03 0.03 0.02 0.02 0.02 0.03 0.03 0.04 0.04 0.04
0.13 0.14 0.14 0.16 0.19 0.20 0.20 0.21 0.22 0.19 0.16 0.14 0.11 0.09 0.08 0.07 0.06 0.05 0.03 0.03 0.02 0.02 0.02 0.01 0.01 0.01 0.02 0.02 0.02 0.03 0.04 0.03 0.03 0.03 0.03 0.03 0.03 0.03 0.02 0.03 0.03 0.03 0.04
0.14 0.13 0.13 0.15 0.17 0.16 0.16 0.15 0.13 0.10 0.09 0.08 0.07 0.07 0.06 0.05 0.04 0.04 0.03 0.02 0.02 0.02 0.02 0.02 0.01 0.01 0.02 0.02 0.02 0.03 0.03 0.03 0.03 0.03 0.04 0.04 0.04 0.04 0.03 0.03 0.04 0.03 0.03
0.12 0.11 0.12 0.13 0.15 0.15 0.13 0.10 0.08 0.06 0.05 0.04 0.05 0.05 0.04 0.04 0.03 0.03 0.03 0.02 0.02 0.02 0.02 0.02 0.02 0.02 0.02 0.02 0.02 0.02 0.02 0.02 0.03 0.02 0.02 0.02 0.03 0.03 0.02 0.03 0.03 0.03 0.04
0.10 0.09 0.08 0.09 0.10 0.10 0.07 0.05 0.05 0.04 0.04 0.03 0.03 0.03 0.03 0.03 0.02 0.01 0.02 0.01 0.01 0.01 0.01 0.01 0.02 0.01 0.01 0.01 0.01 0.01 0.00 0.00 0.01 0.01 0.01 0.01 0.02 0.02 0.02 0.02 0.03 0.03 0.05
0.09 0.07 0.06 0.06 0.06 0.06 0.06 0.04 0.04 0.04 0.04 0.03 0.03 0.03 0.03 0.02 0.02 0.02 0.01 0.01 0.00 0.00 0.01 0.01 0.01 0.01 0.01 0.01 0.01 0.00 0.00 0.00 0.00 0.01 0.01 0.01 0.01 0.02 0.03 0.03 0.04 0.05 0.06
0.06 0.06 0.06 0.05 0.05 0.05 0.05 0.04 0.04 0.03 0.03 0.02 0.02 0.02 0.02 0.02 0.02 0.02 0.02 0.01 0.01 0.01 0.01 0.01 0.01 0.01 0.01 0.01 0.01 0.01 0.00 0.00 0.01 0.01 0.01 0.00 0.01 0.01 0.01 0.02 0.02 0.02 0.02
0.03 0.04 0.05 0.05 0.04 0.04 0.04 0.03 0.03 0.02 0.01 0.01 0.01 0.02 0.02 0.02 0.03 0.04 0.04 0.03 0.02 0.01 0.01 0.01 0.00 0.00 0.00 0.00 0.00 0.00 0.00 0.00 0.00 0.00 0.00 0.00 0.00 0.00 0.01 0.01 0.01 0.01 0.01
0.03 0.03 0.03 0.03 0.04 0.04 0.04 0.03 0.03 0.02 0.01 0.01 0.01 0.01 0.01 0.01 0.01 0.02 0.04 0.05 0.03 0.02 0.01 0.01 0.01 0.01 0.00 0.00 0.00 0.00 0.00 0.00 0.00 0.00 0.00 0.01 0.01 0.01 0.01 0.01 0.02 0.02 0.03
0.03 0.03 0.02 0.02 0.03 0.04 0.04 0.03 0.03 0.02 0.01 0.01 0.00 0.00 0.00 0.00 0.01 0.01 0.01 0.02 0.02 0.02 0.01 0.01 0.00 0.00 0.00 0.00 0.00 0.00 0.00 0.00 0.00 0.00 0.00 0.01 0.01 0.01 0.01 0.01 0.02 0.03 0.03
0.02 0.02 0.02 0.02 0.03 0.04 0.04 0.03 0.03 0.03 0.02 0.01 0.01 0.01 0.01 0.01 0.01 0.01 0.01 0.01 0.01 0.01 0.01 0.00 0.00 0.00 0.00 0.00 0.00 0.00 0.00 0.00 0.00 0.00 0.00 0.00 0.00 0.00 0.01 0.01 0.01 0.01 0.02
0.02 0.01 0.02 0.03 0.03 0.03 0.02 0.02 0.02 0.02 0.03 0.03 0.02 0.02 0.02 0.01 0.01 0.01 0.01 0.01 0.01 0.01 0.01 0.01 0.01 0.00 0.00 0.00 0.00 0.00 0.00 0.00 0.00 0.00 0.00 0.00 0.00 0.01 0.01 0.02 0.02 0.01 0.02
0.03 0.03 0.03 0.03 0.03 0.02 0.02 0.02 0.02 0.02 0.02 0.02 0.02 0.03 0.02 0.02 0.02 0.02 0.01 0.01 0.01 0.01 0.02 0.01 0.01 0.01 0.00 0.00 0.00 0.00 0.00 0.00 0.00 0.00 0.00 0.00 0.00 0.01 0.01 0.01 0.01 0.01 0.01
MSLP
1009.68 1010.20 1010.73 1011.23 1011.65 1011.96 1012.18 1012.33 1012.45 1012.59 1012.79 1013.06 1013.42 1013.84 1014.28 1014.72 1015.13 1015.48 1015.78 1016.03 1016.26 1016.49 1016.73 1016.99 1017.28 1017.59 1017.89 1018.18 1018.44 1018.65 1018.83 1018.97 1019.07 1019.16 1019.22 1019.27 1019.31 1019.34 1019.37 1019.39 1019.42 1019.46 1019.53
1009.28 1009.75 1010.22 1010.66 1011.03 1011.32 1011.51 1011.66 1011.78 1011.92 1012.12 1012.40 1012.75 1013.16 1013.60 1014.05 1014.47 1014.84 1015.17 1015.46 1015.72 1015.97 1016.22 1016.49 1016.78 1017.08 1017.39 1017.70 1017.99 1018.25 1018.50 1018.72 1018.92 1019.08 1019.23 1019.34 1019.41 1019.45 1019.46 1019.45 1019.42 1019.41 1019.42
1008.99 1009.40 1009.81 1010.19 1010.51 1010.75 1010.91 1011.04 1011.15 1011.29 1011.48 1011.75 1012.09 1012.48 1012.91 1013.35 1013.77 1014.16 1014.51 1014.82 1015.11 1015.38 1015.66 1015.94 1016.25 1016.57 1016.90 1017.24 1017.57 1017.90 1018.22 1018.52 1018.80 1019.05 1019.26 1019.42 1019.53 1019.58 1019.57 1019.53 1019.46 1019.40 1019.35
1008.79 1009.15 1009.50 1009.82 1010.07 1010.25 1010.37 1010.46 1010.55 1010.68 1010.86 1011.10 1011.43 1011.80 1012.21 1012.63 1013.04 1013.42 1013.77 1014.10 1014.41 1014.71 1015.01 1015.33 1015.67 1016.02 1016.39 1016.78 1017.17 1017.56 1017.95 1018.33 1018.68 1019.00 1019.26 1019.47 1019.61 1019.67 1019.66 1019.60 1019.51 1019.40 1019.32
1008.67 1008.99 1009.28 1009.52 1009.69 1009.80 1009.87 1009.92 1009.98 1010.08 1010.24 1010.47 1010.76 1011.11 1011.48 1011.87 1012.25 1012.62 1012.96 1013.29 1013.61 1013.94 1014.28 1014.64 1015.02 1015.43 1015.86 1016.30 1016.75 1017.21 1017.67 1018.10 1018.52 1018.89 1019.20 1019.44 1019.60 1019.68 1019.68 1019.62 1019.52 1019.41 1019.32
1008.61 1008.88 1009.11 1009.27 1009.37 1009.41 1009.41 1009.41 1009.43 1009.50 1009.63 1009.83 1010.09 1010.40 1010.74 1011.09 1011.43 1011.76 1012.09 1012.41 1012.74 1013.09 1013.46 1013.87 1014.31 1014.78 1015.28 1015.79 1016.31 1016.83 1017.34 1017.83 1018.28 1018.69 1019.03 1019.30 1019.49 1019.59 1019.61 1019.57 1019.50 1019.41 1019.33
1008.59 1008.82 1008.98 1009.07 1009.08 1009.05 1008.98 1008.93 1008.91 1008.95 1009.05 1009.22 1009.45 1009.72 1010.01 1010.31 1010.60 1010.90 1011.19 1011.50 1011.83 1012.20 1012.62 1013.08 1013.58 1014.11 1014.67 1015.25 1015.83 1016.41 1016.96 1017.49 1017.98 1018.41 1018.78 1019.07 1019.28 1019.41 1019.48 1019.48 1019.45 1019.40 1019.37
1008.60 1008.78 1008.89 1008.90 1008.84 1008.74 1008.62 1008.52 1008.46 1008.46 1008.54 1008.68 1008.88 1009.10 1009.34 1009.59 1009.84 1010.09 1010.35 1010.64 1010.97 1011.35 1011.80 1012.30 1012.86 1013.46 1014.08 1014.72 1015.36 1015.98 1016.57 1017.13 1017.63 1018.08 1018.47 1018.78 1019.02 1019.19 1019.30 1019.37 1019.40 1019.42 1019.45
1008.63 1008.78 1008.83 1008.78 1008.67 1008.51 1008.34 1008.21 1008.13 1008.11 1008.16 1008.27 1008.43 1008.61 1008.81 1009.00 1009.19 1009.40 1009.62 1009.89 1010.21 1010.61 1011.08 1011.62 1012.22 1012.88 1013.56 1014.25 1014.93 1015.58 1016.20 1016.78 1017.30 1017.76 1018.16 1018.50 1018.77 1018.98 1019.15 1019.28 1019.38 1019.47 1019.57
1008.69 1008.80 1008.81 1008.72 1008.57 1008.39 1008.21 1008.06 1007.96 1007.93 1007.96 1008.05 1008.17 1008.31 1008.46 1008.60 1008.74 1008.90 1009.09 1009.33 1009.65 1010.04 1010.53 1011.10 1011.73 1012.42 1013.14 1013.87 1014.58 1015.27 1015.91 1016.49 1017.03 1017.50 1017.91 1018.27 1018.58 1018.83 1019.05 1019.24 1019.41 1019.57 1019.73
1008.78 1008.85 1008.84 1008.74 1008.59 1008.41 1008.23 1008.09 1008.00 1007.97 1007.99 1008.06 1008.14 1008.24 1008.34 1008.44 1008.53 1008.65 1008.80 1009.02 1009.32 1009.71 1010.20 1010.78 1011.43 1012.14 1012.88 1013.63 1014.36 1015.06 1015.71 1016.31 1016.85 1017.33 1017.76 1018.14 1018.47 1018.77 1019.04 1019.28 1019.50 1019.71 1019.92
1008.87 1008.93 1008.92 1008.84 1008.71 1008.56 1008.42 1008.31 1008.24 1008.22 1008.24 1008.29 1008.35 1008.41 1008.46 1008.51 1008.57 1008.65 1008.77 1008.96 1009.25 1009.62 1010.11 1010.68 1011.33 1012.04 1012.79 1013.54 1014.27 1014.97 1015.62 1016.23 1016.77 1017.27 1017.71 1018.11 1018.47 1018.79 1019.09 1019.37 1019.63 1019.88 1020.12
1008.96 1009.02 1009.03 1008.99 1008.92 1008.83 1008.75 1008.69 1008.66 1008.66 1008.68 1008.72 1008.75 1008.78 1008.80 1008.81 1008.83 1008.88 1008.98 1009.15 1009.41 1009.78 1010.24 1010.79 1011.43 1012.12 1012.84 1013.58 1014.30 1014.99 1015.64 1016.24 1016.79 1017.29 1017.75 1018.16 1018.54 1018.89 1019.21 1019.51 1019.79 1020.06 1020.31
1009.02 1009.09 1009.14 1009.17 1009.17 1009.17 1009.16 1009.17 1009.18 1009.21 1009.24 1009.27 1009.28 1009.29 1009.28 1009.27 1009.27 1009.30 1009.38 1009.54 1009.78 1010.12 1010.55 1011.08 1011.68 1012.33 1013.02 1013.72 1014.41 1015.08 1015.72 1016.31 1016.86 1017.37 1017.83 1018.26 1018.65 1019.01 1019.34 1019.64 1019.93 1020.20 1020.46
1009.02 1009.12 1009.22 1009.32 1009.41 1009.49 1009.57 1009.64 1009.71 1009.77 1009.81 1009.84 1009.85 1009.84 1009.82 1009.80 1009.79 1009.82 1009.90 1010.04 1010.27 1010.59 1010.99 1011.47 1012.02 1012.63 1013.26 1013.92 1014.57 1015.21 1015.82 1016.41 1016.95 1017.46 1017.93 1018.36 1018.75 1019.12 1019.45 1019.76 1020.04 1020.31 1020.56
1008.93 1009.06 1009.21 1009.38 1009.55 1009.72 1009.87 1010.01 1010.13 1010.22 1010.29 1010.33 1010.34 1010.34 1010.33 1010.32 1010.32 1010.36 1010.45 1010.60 1010.82 1011.11 1011.48 1011.91 1012.41 1012.95 1013.52 1014.12 1014.72 1015.32 1015.91 1016.47 1017.01 1017.52 1017.99 1018.43 1018.83 1019.19 1019.52 1019.83 1020.11 1020.37 1020.61
1008.75 1008.90 1009.10 1009.32 1009.56 1009.79 1010.01 1010.21 1010.37 1010.49 1010.59 1010.65 1010.69 1010.71 1010.72 1010.75 1010.79 1010.85 1010.96 1011.13 1011.34 1011.62 1011.95 1012.33 1012.77 1013.24 1013.75 1014.28 1014.84 1015.39 1015.95 1016.50 1017.03 1017.54 1018.01 1018.45 1018.85 1019.22 1019.55 1019.85 1020.13 1020.38 1020.63
1008.49 1008.64 1008.86 1009.12 1009.40 1009.68 1009.94 1010.17 1010.37 1010.53 1010.66 1010.75 1010.83 1010.89 1010.96 1011.03 1011.12 1011.24 1011.38 1011.57 1011.79 1012.05 1012.35 1012.69 1013.06 1013.47 1013.92 1014.39 1014.89 1015.41 1015.94 1016.47 1016.99 1017.50 1017.98 1018.42 1018.83 1019.20 1019.53 1019.83 1020.11 1020.37 1020.62
1008.16 1008.30 1008.52 1008.78 1009.07 1009.37 1009.65 1009.91 1010.13 1010.32 1010.48 1010.62 1010.75 1010.88 1011.01 1011.15 1011.30 1011.48 1011.68 1011.89 1012.12 1012.38 1012.65 1012.95 1013.27 1013.62 1014.01 1014.43 1014.88 1015.37 1015.87 1016.39 1016.91 1017.42 1017.90 1018.36 1018.77 1019.15 1019.48 1019.79 1020.06 1020.33 1020.59
1007.78 1007.90 1008.09 1008.34 1008.61 1008.90 1009.18 1009.44 1009.68 1009.90 1010.09 1010.29 1010.48 1010.67 1010.88 1011.10 1011.33 1011.58 1011.83 1012.08 1012.33 1012.58 1012.83 1013.10 1013.38 1013.68 1014.02 1014.40 1014.82 1015.28 1015.77 1016.28 1016.80 1017.31 1017.80 1018.26 1018.68 1019.07 1019.41 1019.72 1020.01 1020.28 1020.55
1007.39 1007.47 1007.62 1007.82 1008.07 1008.32 1008.58 1008.83 1009.08 1009.32 1009.55 1009.79 1010.05 1010.32 1010.61 1010.91 1011.23 1011.54 1011.84 1012.13 1012.41 1012.66 1012.91 1013.15 1013.40 1013.67 1013.98 1014.33 1014.72 1015.16 1015.64 1016.14 1016.66 1017.18 1017.68 1018.15 1018.58 1018.97 1019.32 1019.64 1019.93 1020.22 1020.51
1007.00 1007.03 1007.14 1007.29 1007.49 1007.70 1007.93 1008.16 1008.40 1008.65 1008.92 1009.21 1009.53 1009.87 1010.24 1010.62 1011.01 1011.38 1011.74 1012.08 1012.38 1012.64 1012.89 1013.12 1013.36 1013.61 1013.90 1014.23 1014.61 1015.04 1015.51 1016.01 1016.53 1017.05 1017.56 1018.03 1018.47 1018.86 1019.22 1019.55 1019.85 1020.15 1020.44
1006.62 1006.62 1006.68 1006.79 1006.93 1007.10 1007.29 1007.49 1007.72 1007.98 1008.27 1008.60 1008.97 1009.38 1009.81 1010.26 1010.71 1011.15 1011.56 1011.93 1012.26 1012.55 1012.81 1013.04 1013.28 1013.53 1013.81 1014.13 1014.51 1014.93 1015.40 1015.90 1016.41 1016.93 1017.44 1017.91 1018.35 1018.75 1019.11 1019.44 1019.75 1020.06 1020.36
1006.24 1006.23 1006.26 1006.33 1006.42 1006.55 1006.71 1006.89 1007.11 1007.36 1007.67 1008.03 1008.43 1008.88 1009.37 1009.87 1010.37 1010.86 1011.32 1011.73 1012.10 1012.41 1012.70 1012.95 1013.20 1013.46 1013.75 1014.07 1014.45 1014.87 1015.33 1015.82 1016.33 1016.84 1017.33 1017.80 1018.23 1018.63 1018.99 1019.33 1019.64 1019.95 1020.26
1005.87 1005.86 1005.88 1005.93 1006.00 1006.10 1006.22 1006.38 1006.58 1006.84 1007.15 1007.51 1007.94 1008.42 1008.94 1009.48 1010.03 1010.56 1011.06 1011.52 1011.92 1012.28 1012.60 1012.89 1013.17 1013.45 1013.75 1014.08 1014.46 1014.87 1015.32 1015.79 1016.28 1016.77 1017.25 1017.70 1018.12 1018.51 1018.87 1019.21 1019.53 1019.84 1020.16
1005.48 1005.50 1005.54 1005.59 1005.66 1005.74 1005.85 1006.00 1006.18 1006.42 1006.73 1007.10 1007.54 1008.03 1008.57 1009.14 1009.71 1010.28 1010.82 1011.32 1011.78 1012.19 1012.55 1012.89 1013.20 1013.52 1013.84 1014.18 1014.55 1014.96 1015.38 1015.83 1016.29 1016.75 1017.20 1017.62 1018.03 1018.41 1018.76 1019.10 1019.42 1019.74 1020.05
Thickness
5793 5789 5786 5783 5779 5776 5772 5770 5768 5766 5763 5761 5759 5756 5754 5752 5750 5748 5746 5744 5741 5740 5739 5738 5736 5736 5734 5734 5733 5731 5728 5725 5720 5722 5724 5726 5725 5724 5724 5723 5722 5722 5721
5793 5789 5786 5782 5778 5775 5772 5770 5768 5765 5763 5761 5758 5755 5753 5751 5749 5746 5744 5742 5740 5737 5736 5734 5733 5733 5731 5730 5729 5727 5725 5724 5720 5718 5719 5719 5719 5720 5719 5719 5718 5718 5717
5792 5787 5783 5780 5777 5774 5771 5769 5766 5763 5761 5759 5756 5752 5750 5748 5746 5745 5742 5740 5737 5735 5733 5730 5729 5728 5726 5726 5725 5723 5722 5721 5719 5715 5714 5715 5714 5714 5713 5713 5713 5712 5712
5790 5785 5781 5778 5776 5774 5771 5768 5764 5761 5758 5755 5753 5750 5747 5745 5743 5741 5739 5736 5734 5731 5730 5728 5726 5724 5723 5722 5720 5718 5718 5715 5714 5711 5709 5708 5708 5708 5706 5705 5704 5704 5704
5787 5783 5779 5777 5775 5772 5769 5765 5762 5759 5756 5753 5750 5747 5744 5742 5739 5737 5735 5732 5729 5727 5726 5724 5722 5721 5720 5718 5716 5714 5712 5710 5707 5704 5702 5701 5700 5699 5697 5698 5696 5696 5696
5783 5780 5777 5774 5771 5769 5766 5762 5759 5756 5752 5749 5745 5742 5739 5738 5736 5733 5730 5728 5726 5723 5720 5718 5718 5716 5715 5713 5712 5711 5709 5705 5701 5698 5695 5693 5693 5693 5693 5692 5689 5687 5685
5780 5777 5774 5771 5767 5765 5762 5758 5754 5751 5748 5743 5740 5736 5733 5732 5731 5729 5726 5723 5720 5718 5715 5713 5712 5711 5709 5708 5706 5705 5702 5700 5698 5694 5690 5689 5688 5688 5687 5685 5683 5680 5679
5775 5773 5771 5768 5764 5761 5757 5753 5750 5746 5742 5738 5734 5731 5728 5726 5725 5723 5720 5717 5714 5712 5710 5708 5706 5703 5703 5701 5699 5697 5694 5692 5691 5689 5687 5685 5684 5683 5681 5679 5676 5674 5674
5770 5769 5766 5764 5760 5756 5752 5748 5745 5741 5736 5732 5729 5725 5722 5720 5718 5716 5714 5710 5707 5704 5703 5702 5700 5698 5696 5694 5692 5688 5686 5684 5684 5682 5681 5679 5678 5677 5675 5672 5668 5664 5661
5765 5764 5762 5758 5755 5751 5747 5743 5740 5736 5730 5726 5722 5719 5716 5713 5711 5710 5708 5704 5700 5697 5695 5694 5692 5691 5689 5686 5683 5680 5676 5674 5674 5674 5672 5671 5669 5668 5666 5663 5660 5655 5651
5759 5758 5755 5752 5749 5745 5741 5737 5732 5728 5723 5718 5714 5711 5707 5704 5702 5701 5699 5697 5693 5690 5687 5685 5683 5681 5679 5677 5675 5672 5669 5667 5665 5663 5661 5659 5658 5656 5655 5653 5651 5647 5642
5750 5749 5747 5744 5741 5737 5732 5727 5724 5720 5714 5708 5704 5700 5697 5695 5693 5691 5690 5689 5686 5683 5679 5676 5674 5672 5670 5667 5665 5663 5661 5658 5655 5652 5649 5647 5644 5643 5642 5641 5639 5637 5635
5739 5738 5736 5733 5729 5726 5722 5716 5713 5710 5705 5699 5695 5690 5687 5685 5684 5682 5681 5679 5677 5674 5670 5668 5665 5662 5660 5657 5654 5652 5650 5647 5644 5640 5637 5635 5633 5632 5631 5629 5627 5625 5623
5727 5725 5724 5720 5716 5713 5710 5707 5703 5699 5694 5690 5685 5681 5678 5675 5673 5672 5670 5669 5667 5663 5660 5657 5655 5652 5649 5645 5643 5640 5637 5634 5631 5627 5625 5624 5623 5621 5618 5616 5614 5612 5609
5715 5713 5711 5708 5705 5701 5696 5693 5691 5687 5684 5681 5677 5674 5671 5666 5663 5662 5661 5659 5657 5654 5650 5647 5643 5639 5635 5632 5630 5627 5625 5622 5619 5616 5614 5612 5609 5607 5605 5603 5601 5598 5594
5704 5702 5699 5697 5693 5689 5685 5679 5676 5676 5673 5671 5668 5666 5662 5659 5656 5653 5651 5649 5646 5644 5640 5634 5629 5625 5621 5618 5616 5613 5611 5608 5606 5603 5601 5598 5596 5594 5592 5590 5588 5584 5580
5695 5693 5690 5687 5684 5679 5676 5674 5667 5662 5660 5658 5657 5655 5653 5649 5647 5644 5641 5639 5635 5633 5628 5621 5616 5612 5608 5605 5602 5600 5598 5596 5593 5591 5588 5585 5583 5581 5579 5576 5574 5571 5568
5686 5684 5682 5679 5675 5672 5669 5665 5661 5656 5650 5646 5644 5643 5641 5639 5636 5633 5631 5628 5622 5619 5614 5609 5604 5600 5597 5593 5590 5587 5585 5583 5581 5578 5576 5573 5570 5568 5565 5562 5560 5558 5555
5676 5674 5673 5670 5666 5662 5659 5656 5652 5646 5641 5637 5634 5631 5629 5627 5624 5621 5619 5615 5610 5605 5601 5597 5593 5589 5585 5582 5579 5576 5573 5570 5568 5566 5563 5560 5557 5555 5552 5550 5547 5545 5542
5667 5666 5663 5660 5656 5653 5650 5646 5642 5637 5632 5628 5624 5621 5618 5616 5612 5608 5605 5602 5598 5593 5589 5585 5582 5578 5574 5571 5568 5565 5562 5559 5556 5553 5550 5548 5545 5542 5540 5538 5535 5533 5530
5658 5656 5654 5651 5648 5644 5641 5637 5633 5629 5624 5620 5616 5613 5610 5606 5601 5597 5594 5590 5586 5582 5578 5574 5570 5567 5563 5560 5557 5553 5550 5546 5543 5540 5537 5535 5533 5530 5528 5525 5523 5520 5517
5649 5647 5644 5641 5638 5635 5632 5629 5625 5621 5616 5611 5607 5603 5600 5596 5591 5587 5583 5579 5575 5572 5568 5564 5559 5556 5552 5549 5546 5542 5538 5535 5532 5528 5525 5523 5521 5518 5516 5513 5510 5508 5505
5640 5638 5635 5633 5630 5626 5623 5620 5616 5612 5607 5603 5599 5595 5590 5586 5581 5577 5573 5568 5564 5561 5557 5553 5549 5545 5541 5538 5535 5531 5527 5523 5520 5517 5514 5512 5509 5506 5504 5501 5499 5496 5494
5631 5629 5627 5623 5620 5617 5614 5610 5607 5603 5598 5594 5590 5585 5580 5575 5571 5567 5563 5559 5555 5551 5547 5542 5538 5534 5530 5527 5523 5520 5517 5514 5511 5508 5505 5501 5498 5496 5493 5491 5488 5486 5484
5622 5620 5617 5614 5611 5608 5604 5601 5597 5593 5589 5585 5580 5575 5570 5565 5560 5556 5552 5548 5544 5540 5535 5531 5527 5523 5519 5516 5512 5509 5506 5504 5501 5498 5495 5492 5489 5486 5484 5481 5478 5476 5474
5612 5610 5608 5605 5602 5598 5595 5591 5587 5583 5579 5574 5570 5565 5560 5555 5550 5545 5541 5537 5533 5528 5523 5519 5515 5512 5508 5504 5501 5498 5496 5493 5491 5489 5486 5483 5479 5476 5474 5471 5469 5467 5465